Middlebury State AP, Middlebu, VT

12:43 AM EST on November 15, 2019 (GMT -0500)
Middlebury State AP, Middlebu

Weather History for K6B0 - August, 2019

Change the Weather History Date:

Sunday, August 25, 2019

  Actual Average (WUND) Record (WUND)
Temperature  
Mean Temperature 62 °F -  
Max Temperature 75 °F - - (-1)
Min Temperature 48 °F - - (-1)
Degree Days  
Heating Degree Days 4    
Growing Degree Days 12 (Base 50)    
Moisture  
Dew Point 51 °F    
Average Humidity 72    
Maximum Humidity 99    
Minimum Humidity 42    
Precipitation  
Precipitation 0.00 in - - ()
Sea Level Pressure  
Sea Level Pressure 30.32 in    
Wind  
Wind Speed 1 mph ()    
Max Wind Speed 7 mph    
Max Gust Speed -    
Visibility 9.5 miles    
Events      
Averages and records for this station are not official NWS values.
T = Trace of Precipitation, MM = Missing Value Source: Averaged Metar Reports

Daily Weather History Graph

Daily Weather History Graph

Search for Another Location

Airport or City:

Astronomy

Aug. 25, 2019 Rise Set
Actual Time 6:07 AM EDT 7:40 PM EDT
Civil Twilight 5:37 AM EDT 8:11 PM EDT
Nautical Twilight 5:00 AM EDT 8:47 PM EDT
Astronomical Twilight 4:20 AM EDT 9:26 PM EDT
Moon 12:34 AM EDT (8/25) 4:05 PM EDT (8/25)
Length of Visible Light 14h 33m
Length of Day
13h 33m
Waning Crescent, 29% of the Moon is Illuminated
Aug 25
Waning Crescent
Aug 30
New
Sep 5
First Quarter
Sep 14
Full
Sep 21
Last Quarter

Hourly Weather History & Observations

Time (EDT) Temp. Dew Point Humidity Pressure Visibility Wind Dir Wind Speed Gust Speed Precip Events Conditions
12:15 AM 53.1 °F 52.3 °F 97% 30.32 in 10.0 mi Calm Calm - N/A   Clear
12:16 AM 53.1 °F 52.3 °F 97% 30.32 in 10.0 mi Calm Calm - N/A   Clear
12:35 AM 52.7 °F 52.0 °F 97% 30.32 in 10.0 mi Calm Calm - N/A   Clear
12:39 AM 52.7 °F 52.0 °F 97% 30.32 in 10.0 mi Calm Calm - N/A   Clear
12:57 AM 52.7 °F 52.0 °F 97% 30.31 in 10.0 mi Calm Calm - N/A   Clear
1:15 AM 52.7 °F 51.8 °F 97% 30.31 in 10.0 mi Calm Calm - N/A   Clear
1:35 AM 52.5 °F 52.0 °F 98% 30.31 in 10.0 mi Calm Calm - N/A   Clear
1:36 AM 52.5 °F 52.0 °F 98% 30.31 in 10.0 mi Calm Calm - N/A   Clear
1:55 AM 51.6 °F 50.9 °F 97% 30.31 in 10.0 mi Calm Calm - N/A   Clear
1:56 AM 51.6 °F 50.9 °F 97% 30.31 in 10.0 mi Calm Calm - N/A   Clear
2:19 AM 52.0 °F 51.4 °F 98% 30.31 in 10.0 mi Calm Calm - N/A   Clear
2:37 AM 51.3 °F 50.7 °F 98% 30.31 in 10.0 mi Calm Calm - N/A   Clear
2:55 AM 51.1 °F 50.7 °F 99% 30.31 in 10.0 mi Calm Calm - N/A   Clear
3:15 AM 51.8 °F 51.1 °F 97% 30.31 in 10.0 mi Calm Calm - N/A   Clear
3:16 AM 51.8 °F 51.1 °F 97% 30.31 in 10.0 mi Calm Calm - N/A   Clear
3:35 AM 50.9 °F 50.4 °F 98% 30.32 in 5.0 mi Calm Calm - N/A   Clear
3:57 AM 50.0 °F 49.6 °F 99% 30.32 in 7.0 mi Calm Calm - N/A   Clear
4:15 AM 50.2 °F 49.6 °F 98% 30.32 in 7.0 mi Calm Calm - N/A   Clear
4:35 AM 50.2 °F 49.6 °F 98% 30.33 in 10.0 mi Calm Calm - N/A   Clear
4:36 AM 50.0 °F 49.6 °F 99% 30.33 in 10.0 mi Calm Calm - N/A   Clear
4:55 AM 50.0 °F 49.5 °F 98% 30.33 in 7.0 mi Calm Calm - N/A   Clear
4:56 AM 50.0 °F 49.5 °F 98% 30.33 in 7.0 mi Calm Calm - N/A   Clear
5:18 AM 48.6 °F 48.2 °F 99% 30.33 in 1.5 mi Calm Calm - N/A   Mist
5:36 AM 50.0 °F 49.5 °F 98% 30.33 in 10.0 mi Calm Calm - N/A   Clear
5:55 AM 49.1 °F 48.6 °F 98% 30.34 in 7.0 mi Calm Calm - N/A   Clear
5:56 AM 49.1 °F 48.6 °F 98% 30.34 in 7.0 mi Calm Calm - N/A   Clear
6:15 AM 50.4 °F 49.8 °F 98% 30.34 in 7.0 mi Calm Calm - N/A   Clear
6:35 AM 50.5 °F 50.2 °F 99% 30.35 in 4.0 mi Calm Calm - N/A   Clear
6:57 AM 50.0 °F 49.6 °F 99% 30.35 in 5.0 mi Calm Calm - N/A   Clear
7:15 AM 50.7 °F 50.4 °F 99% 30.36 in 10.0 mi Calm Calm - N/A   Clear
7:35 AM 52.7 °F 52.5 °F 99% 30.36 in 10.0 mi Calm Calm - N/A   Clear
7:36 AM 52.9 °F 52.5 °F 99% 30.36 in 10.0 mi Calm Calm - N/A   Clear
7:55 AM 54.7 °F 54.1 °F 98% 30.37 in 10.0 mi Calm Calm - N/A   Clear
7:56 AM 54.9 °F 54.1 °F 97% 30.37 in 10.0 mi Calm Calm - N/A   Clear
8:18 AM 57.4 °F 55.8 °F 94% 30.37 in 10.0 mi Calm Calm - N/A   Clear
8:36 AM 59.5 °F 56.5 °F 90% 30.37 in 10.0 mi Calm Calm - N/A   Clear
8:56 AM 61.2 °F 57.6 °F 88% 30.37 in 10.0 mi Calm Calm - N/A   Clear
9:15 AM 63.3 °F 58.3 °F 84% 30.37 in 10.0 mi Calm Calm - N/A   Clear
9:16 AM 63.3 °F 58.1 °F 83% 30.37 in 10.0 mi Calm Calm - N/A   Clear
9:35 AM 64.4 °F 57.7 °F 79% 30.37 in 10.0 mi NE 3.5 mph - N/A   Clear
9:57 AM 64.9 °F 57.7 °F 77% 30.38 in 10.0 mi Calm Calm - N/A   Scattered Clouds
10:15 AM 64.0 °F 56.7 °F 77% 30.37 in 10.0 mi Calm Calm - N/A   Scattered Clouds
10:35 AM 66.0 °F 57.4 °F 74% 30.37 in 10.0 mi North 3.5 mph - N/A   Scattered Clouds
10:36 AM 66.2 °F 57.4 °F 73% 30.37 in 10.0 mi Calm Calm - N/A   Scattered Clouds
10:55 AM 66.4 °F 54.0 °F 64% 30.37 in 10.0 mi Calm Calm - N/A   Scattered Clouds
10:56 AM 66.6 °F 54.0 °F 64% 30.37 in 10.0 mi Calm Calm - N/A   Scattered Clouds
11:18 AM 68.5 °F 55.2 °F 62% 30.36 in 10.0 mi North 3.5 mph - N/A   Scattered Clouds
11:36 AM 67.5 °F 55.4 °F 65% 30.36 in 10.0 mi Calm Calm - N/A   Mostly Cloudy
11:56 AM 68.2 °F 55.8 °F 64% 30.35 in 10.0 mi North 4.6 mph - N/A   Mostly Cloudy
12:15 PM 70.0 °F 55.9 °F 61% 30.34 in 10.0 mi Calm Calm - N/A   Overcast
12:16 PM 70.0 °F 55.6 °F 60% 30.34 in 10.0 mi Calm Calm - N/A   Overcast
12:35 PM 69.8 °F 55.2 °F 60% 30.34 in 10.0 mi NNW 5.8 mph - N/A   Mostly Cloudy
12:58 PM 70.3 °F 55.8 °F 60% 30.33 in 10.0 mi NW 3.5 mph - N/A   Mostly Cloudy
1:16 PM 71.1 °F 55.8 °F 58% 30.32 in 10.0 mi North 3.5 mph - N/A   Mostly Cloudy
1:35 PM 72.7 °F 54.9 °F 53% 30.32 in 10.0 mi NNW 3.5 mph - N/A   Overcast
1:36 PM 72.9 °F 55.2 °F 54% 30.32 in 10.0 mi NNW 4.6 mph - N/A   Overcast
1:55 PM 72.9 °F 55.2 °F 54% 30.31 in 10.0 mi WNW 3.5 mph - N/A   Mostly Cloudy
1:56 PM 72.9 °F 55.0 °F 53% 30.31 in 10.0 mi West 4.6 mph - N/A   Mostly Cloudy
2:18 PM 72.5 °F 55.0 °F 54% 30.31 in 10.0 mi West 4.6 mph - N/A   Scattered Clouds
2:36 PM 73.2 °F 54.5 °F 52% 30.30 in 10.0 mi Calm Calm - N/A   Scattered Clouds
2:56 PM 73.9 °F 54.9 °F 51% 30.30 in 10.0 mi NW 5.8 mph - N/A   Mostly Cloudy
3:15 PM 75.0 °F 54.5 °F 49% 30.29 in 10.0 mi Calm Calm - N/A   Mostly Cloudy
3:16 PM 75.2 °F 54.3 °F 48% 30.29 in 10.0 mi Calm Calm - N/A   Mostly Cloudy
3:35 PM 74.7 °F 54.3 °F 49% 30.29 in 10.0 mi Calm Calm - N/A   Mostly Cloudy
3:40 PM 74.7 °F 54.7 °F 50% 30.28 in 10.0 mi North 4.6 mph - N/A   Mostly Cloudy
3:58 PM 73.9 °F 54.3 °F 50% 30.28 in 10.0 mi Calm Calm - N/A   Scattered Clouds
4:16 PM 74.3 °F 53.2 °F 48% 30.27 in 10.0 mi Calm Calm - N/A   Clear
4:35 PM 74.5 °F 52.5 °F 46% 30.27 in 10.0 mi Calm Calm - N/A   Clear
4:55 PM 74.5 °F 53.2 °F 47% 30.27 in 10.0 mi Calm Calm - N/A   Clear
4:56 PM 74.3 °F 52.7 °F 47% 30.27 in 10.0 mi Calm Calm - N/A   Clear
5:18 PM 74.5 °F 49.8 °F 42% 30.27 in 10.0 mi Calm Calm - N/A   Clear
5:36 PM 73.2 °F 49.3 °F 43% 30.26 in 10.0 mi SSE 3.5 mph - N/A   Clear
5:56 PM 72.9 °F 49.1 °F 43% 30.26 in 10.0 mi Calm Calm - N/A   Clear
6:15 PM 72.0 °F 52.3 °F 50% 30.26 in 10.0 mi Calm Calm - N/A   Clear
6:16 PM 71.8 °F 53.1 °F 52% 30.26 in 10.0 mi Calm Calm - N/A   Clear
6:35 PM 69.8 °F 54.3 °F 58% 30.26 in 10.0 mi Calm Calm - N/A   Clear
6:39 PM 68.9 °F 57.2 °F 66% 30.26 in 10.0 mi Calm Calm - N/A   Clear
6:57 PM 66.6 °F 54.9 °F 66% 30.27 in 10.0 mi Calm Calm - N/A   Clear
7:16 PM 65.3 °F 56.8 °F 74% 30.27 in 10.0 mi Calm Calm - N/A   Clear
7:35 PM 63.5 °F 56.7 °F 78% 30.27 in 10.0 mi Calm Calm - N/A   Clear
7:55 PM 62.8 °F 51.4 °F 66% 30.28 in 10.0 mi SE 3.5 mph - N/A   Clear
8:18 PM 63.1 °F 46.9 °F 55% 30.28 in 10.0 mi SSE 3.5 mph - N/A   Clear
8:35 PM 63.5 °F 47.1 °F 55% 30.29 in 10.0 mi Calm Calm - N/A   Clear
8:55 PM 62.8 °F 45.0 °F 52% 30.30 in 10.0 mi ESE 4.6 mph - N/A   Clear
8:56 PM 62.8 °F 45.1 °F 53% 30.30 in 10.0 mi ESE 4.6 mph - N/A   Clear
9:15 PM 63.3 °F 42.6 °F 47% 30.30 in 10.0 mi East 5.8 mph - N/A   Clear
9:16 PM 63.3 °F 42.6 °F 47% 30.30 in 10.0 mi East 5.8 mph - N/A   Clear
9:38 PM 63.1 °F 42.4 °F 47% 30.30 in 10.0 mi East 4.6 mph - N/A   Clear
9:56 PM 62.8 °F 42.3 °F 47% 30.30 in 10.0 mi ESE 5.8 mph - N/A   Clear
10:15 PM 63.5 °F 41.9 °F 45% 30.29 in 10.0 mi SSE 6.9 mph - N/A   Clear
10:16 PM 63.5 °F 42.1 °F 46% 30.29 in 10.0 mi SSE 6.9 mph - N/A   Clear
10:35 PM 62.6 °F 42.4 °F 48% 30.29 in 10.0 mi SSE 6.9 mph - N/A   Clear
10:36 PM 62.6 °F 42.4 °F 48% 30.29 in 10.0 mi SSE 5.8 mph - N/A   Clear
10:55 PM 61.9 °F 42.8 °F 50% 30.29 in 10.0 mi SSE 4.6 mph - N/A   Clear
10:59 PM 62.1 °F 42.8 °F 49% 30.28 in 10.0 mi South 5.8 mph - N/A   Clear
11:17 PM 61.5 °F 42.8 °F 50% 30.29 in 10.0 mi SSE 5.8 mph - N/A   Clear
11:36 PM 61.7 °F 43.3 °F 51% 30.28 in 10.0 mi South 6.9 mph - N/A   Clear
11:55 PM 61.3 °F 43.7 °F 52% 30.29 in 10.0 mi South 6.9 mph - N/A   Clear